Home   Weather   Aktau   Past weeks

Flag for Kazakhstan Past Weather in Aktau, Kazakhstan — Yesterday and Last 2 Weeks

Now
41 °F

Sprinkles. Mostly cloudy.


Feels Like: 32 °F
Forecast: 41 / 45 °F
Wind: 17 mph from West

Location: Aktau

Current Time: Dec 10, 2016 at 12:35:53 am

Latest Report: Dec 10, 2016 at 12:00 am


Visibility: N/A

Pressure: 29.83 "Hg

Humidity: 87%

Dew Point: 37 °F

Location of AktauLocation

Past Weather in Aktau — Graph

°F

Aktau Temperature Yesterday

Maximum temperature yesterday: 41 °F (at 8:30 pm)
Minimum temperature yesterday: 21 °F (at 12:00 am)
Average temperature yesterday: 34 °F

High & Low Weather Summary for the Past Weeks

 TemperatureHumidityPressure
High52 °F (Nov 29, 3:00 pm)100% (Nov 28, 2:30 am)30.66 "Hg (Nov 28, 2:30 am)
Low12 °F (Dec 8, 7:30 pm)46% (Nov 29, 1:00 pm)29.59 "Hg (Dec 2, 6:00 pm)
Average35 °F82%30.13 "Hg
* Reported Nov 24 11:00 pm — Dec 9 11:30 pm, Aktau, Weather by CustomWeather, © 2016

Note: Actual official high and low records may vary slightly from our data, if they occured in-between our weather recording intervals... More about our weather records

Advertising

Aktau Weather History for the Previous 24 Hours

Scroll right to see more
 ConditionsComfort  
Time TempWeatherWind HumidityBarometerVisibility
11:30 pm
Fri, Dec 9
41 °FMostly cloudy.13 mph87%29.83 "HgN/A
11:00 pm41 °FMostly cloudy.17 mph87%29.83 "HgN/A
10:30 pm41 °FMostly cloudy.13 mph81%29.83 "HgN/A
10:00 pm41 °FMostly cloudy.10 mph81%29.86 "HgN/A
9:30 pm41 °FMostly cloudy.13 mph81%29.86 "HgN/A
9:00 pm41 °FMostly cloudy.15 mph76%29.86 "HgN/A
8:30 pm41 °FMostly cloudy.15 mph81%29.86 "HgN/A
8:00 pm39 °FClear.10 mph87%29.86 "Hg10 mi
7:30 pm39 °FSunny.10 mph81%29.86 "Hg10 mi
7:00 pm37 °FSunny.8 mph87%29.86 "Hg10 mi
6:30 pm37 °FSunny.6 mph87%29.86 "Hg10 mi
6:00 pm36 °FSunny.8 mph87%29.89 "Hg10 mi
5:30 pm36 °FMostly cloudy.8 mph87%29.89 "HgN/A
5:00 pm36 °FPassing clouds.6 mph87%29.86 "HgN/A
4:30 pm36 °FSunny.8 mph87%29.89 "Hg10 mi
4:00 pm36 °FSunny.10 mph81%29.89 "Hg10 mi
3:30 pm34 °FSunny.13 mph87%29.89 "Hg10 mi
3:00 pm34 °FMore clouds than sun.10 mph81%29.92 "HgN/A
2:30 pm34 °FMore clouds than sun.8 mph81%29.95 "HgN/A
2:00 pm34 °FOvercast.13 mph81%29.95 "HgN/A
1:30 pm34 °FMore clouds than sun.10 mph81%29.98 "HgN/A
1:00 pm32 °FMostly cloudy.10 mph80%30.01 "HgN/A
12:30 pm32 °FOvercast.8 mph75%30.04 "HgN/A
12:00 pm32 °FOvercast.8 mph75%30.07 "HgN/A
11:30 am34 °FOvercast.6 mph70%30.09 "HgN/A
11:00 am34 °FMostly cloudy.6 mph75%30.09 "HgN/A
10:30 am36 °FMostly cloudy.8 mph65%30.09 "HgN/A
9:30 am34 °FPassing clouds.10 mph70%30.12 "HgN/A
9:00 am34 °FClear.13 mph70%30.12 "Hg10 mi
8:30 am34 °FOvercast.13 mph65%30.15 "HgN/A
8:00 am34 °FSnow flurries. Mostly cloudy.15 mph70%30.15 "HgN/A
7:30 am34 °FSnow flurries. Mostly cloudy.15 mph75%30.18 "HgN/A
7:00 am34 °FPassing clouds.15 mph75%30.18 "HgN/A
6:30 am34 °FPassing clouds.15 mph75%30.21 "HgN/A
6:00 am32 °FPassing clouds.10 mph64%30.21 "HgN/A
5:30 am32 °FPassing clouds.10 mph60%30.24 "HgN/A
5:00 am32 °FPassing clouds.10 mph55%30.24 "HgN/A
4:30 am32 °FPassing clouds.13 mph60%30.27 "HgN/A
4:00 am32 °FPassing clouds.13 mph55%30.27 "HgN/A
3:30 am30 °FPassing clouds.13 mph55%30.30 "HgN/A
3:00 am30 °FPassing clouds.13 mph55%30.30 "HgN/A
2:30 am30 °FPassing clouds.13 mph59%30.33 "HgN/A
2:00 am30 °FPassing clouds.10 mph64%30.33 "HgN/A
1:30 am30 °FPassing clouds.13 mph64%30.36 "HgN/A
1:00 am30 °FPassing clouds.8 mph64%30.36 "HgN/A
12:30 am21 °FPassing clouds.1 mph86%30.39 "HgN/A
12:00 am21 °FPassing clouds.6 mph86%30.39 "HgN/A
Weather by CustomWeather, © 2016

See weather overviewHow to use our weather pages